Погода Сангары

Погода Сангары : погода сейчас, прогноз погоды и архив. Всё, что Вы хотите узнать о погоде Сангары!

Хотите узнать прогноз погоды Сангары? Тогда Вам сюда: Погода Сангары

Поиск расширенной информации на нашем сайте:

Другие новости

Новости СМИ2

Главная страница сайта

Новости сайта

02.10.2013

Напоминаем, что на нашем новом сайте вы можете получить высокодетализированные прогнозы погоды по пунктам России, СНГ и мира (включающие важные для авиации метеовеличины, такие как направление и скорость ветра, видимость, явления погоды, количество и форма облачности, нижняя и верхняя граница облачности), а также ознакомиться с разнообразными материалами по авиационной метеорологии и подборкой полезных ссылок на эту тему.

Сайт Метеоцентр.Азия посвящён разработке технологий оптимизации авиаметеорологического обслуживания, включая проектирование и перспективное создание нескольких автоматизированных авиаметеорологических систем:
- система выпуска высокодетальных прогностических карт явлений погоды для нижнего воздушного пространства по России и ближнему зарубежью;
- система верификации прогнозов TAF (выпускаемых синоптиками официальных АМСГ РФ и ближнего зарубежья) и AUTOTAF (выпускаемых сайтом Метеоцентр.Азия) - выявление ошибок, онлайн-сопоставление с фактической погодой METAR, автоматическое внесение коррективов в прогнозы при резком отклонении фактической погоды от прогноза, подсчёт оправдываемости прогнозов по элементам и в целом;
- система обработки, анализа и отображения авиаметеорологической информации для применения провайдерами метеорологической информации.

Рекомендуем: лесные жители белфакс

Погода Сангары - сегодня

Время (UTC), дата Ветер
(°,м/с) 
Видим.   Явления Облачность Т
(°С)
Тd
(°С)
f(%) Тe
(°С)
Pmin
(гПа)
dP
(гПа)
Po
(мм)
O2
(г/м3)
Тmin Tmax R s Состояние
почвы
12 26.05.17 090 (В) 20000 м  в посл. час ливневой дождь  10/8 700 м кучево-дожд., средняя 
[Cb calv|Ac und]
+10.5 -0.5 46 +9  997.1  -1.9  739  287    +13.6  0.1     
15 26.05.17 130 (ЮВ) 4{10}  н/о    н/о 
+7 +5.4 90 +6  995.6  -1.4  738  289           
03 27.05.17 270 (З) 20000 м  слаб. ливневой дождь  10/4 600 м кучево-дожд., средняя 
[Cb calv|Ac und]
+6 +2.3 77 +4  1003.2  3.4  744  293           
06 27.05.17 310 (СЗ) 20000 м  {ливн. осадки}  9/3 600 м кучево-дожд., средняя 
[Cb calv|Ac trans]
+9.4 +2.3 61 +9  1003.4  0.3  744  289           
09 27.05.17 320 (СЗ) 20000 м    1/1 600 м 
[Cu hum]
+11.4 -1.9 39 +12  1004.6  1.2  745  288           
15 27.05.17 060 (СВ) 20000 м    6/0 верхняя 
[Ci fib]
+3.8 -2.1 65 +3  1005.3  0.1  745  296           
18 27.05.17 040 (СВ) 20000 м    8/0 средняя, верхняя 
[Ac trans|Ci fib]
+2.9 -1 75 +4  1006.1  0.7  746  297           
21 27.05.17 тихо ()   20000 м    3/0 средняя 
[Ac trans]
+5.3 -1.5 61 +5  1006.9  0.9  746  295           
00 28.05.17 170 (Ю) 20000 м    10/0 средняя, верхняя 
[Ac trans|Ci fib]
+9.7 +0.3 52 +11  1006.3  -0.3  746  290  +2.2        влажная 
03 28.05.17 260 (З) 20000 м    10/0 средняя, верхняя 
[Ac trans|Ci fib]
+12.6 +0.1 42 +12  1005.4  -0.8  746  287           
06 28.05.17 290 (З) 20000 м    10/0 средняя, верхняя 
[Ac trans|Cs]
+14.8 -1.2 33 +15  1004.4  -1  745  285           
09 28.05.17 300 (СЗ) 20000 м    10/0 средняя, верхняя 
[Ac trans|Ci fib]
+11.5 +0.7 47 +11  1003.9  -0.5  744  288           
12 28.05.17 320 (СЗ) 20000 м    8/4 600 м верхняя 
[Sc|Ci fib]
+9.8 +0.8 53 +9  1005  745  290    +14.9       
15 28.05.17 тихо ()   20000 м    9/0 средняя, верхняя 
[Ac trans|Ci fib]
+5.6 +0.5 70 +6  1005.2  745  294           
18 28.05.17 тихо ()   20000 м    10/0 верхняя 
[Ci fib]
+4 +0.6 78 +4  1005.7  0.4  745  296           
21 28.05.17 300 (СЗ) 20000 м    10/0 средняя, верхняя 
[Ac trans|Ci fib]
+6.2 +2.8 79 +7  1004.6  -1  745  293           
00 29.05.17 300 (СЗ) 20000 м    10/0 средняя, верхняя 
[Ac trans|Ci fib]
+10 +1.4 55 +10  1004.1  -0.3  744  289  +3        влажная 
03 29.05.17 300 (СЗ) 20000 м    10/0 верхняя 
[Ci fib]
+14.2 +1.9 43 +14  1003.4  -0.5  744  285           
06 29.05.17 300 (СЗ) 20000 м    9/4 1000 м средняя 
[Sc|Ac und]
+13.5 +2.1 46 +13  1003.3  -0.1  744  285           
09 29.05.17 300 (СЗ) 3{10}  20000 м    10/4 600 м кучево-дожд., средняя 
[Cb calv|Ac und]
+11.1 +3.1 58 +11  1004.2  -0.8  745  288           
18 29.05.17 320 (СЗ) 20000 м  {ливн. осадки}  9/3 1000 м средняя 
[Sc|Ac und]
+6.8 +4.5 85 +6  1006.8  0.1  746  293           
21 29.05.17 310 (СЗ) 20000 м    9/1 1000 м средняя 
[Sc|Ac und]
+6.5 +2.6 76 +6  1007.3  0.5  747  293           
00 30.05.17 310 (СЗ) 20000 м    9/3 1000 м средняя 
[Sc|Ac trans]
+6.7 +5.1 90 +6  1008.3  747  293  +6    0.6    влажная 
03 30.05.17 310 (СЗ) 20000 м    9/3 1000 м средняя 
[Sc|Ac trans]
+7.7 +2.4 69 +6  1008.5  0.3  748  293           
06 30.05.17 310 (СЗ) 20000 м    9/0 средняя 
[Ac trans]
+10.5 +2.9 59 +10  1008.9  0.5  748  290           
Время (UTC), дата Ветер
(°,м/с) 
Видим.   Явления Облачность Т
(°С)
Тd
(°С)
f(%) Тe
(°С)
Pmin
(гПа)
dP
(гПа)
Po
(мм)
O2
(г/м3)
Тmin Tmax R s Состояние
почвы

Для получения пояснительной информации подведите курсор к названию столбца.

ПОГОДА Сангары - архив

Всё, что Вы хотите узнать о погоде Сангары - удобно и подробно!

Выберите нужную дату (начиная с 1 января 2015* года) и нажмите кнопку "Найти".
Будут отображены архивные сводки погоды по пункту Сангары, начиная с указанной даты.


Отображать данные в формате CSV (для использования в таблицах Excel)


Внимание! Наш архив погоды предназначен исключительно для личного некоммерческого использования в познавательных целях. Если Вам необходимы официальные справки о состоянии погоды (для производственных, юридических, коммерческих и т.п. целей), обращайтесь в органы Росгидромета.

*Примечание: данная дата относится к архиву по метеостанциям СССР (Россия, СНГ, Балтия).
Архив по метеостанциям Зарубежной Европы и Азии (кроме Китая) хранится 10 дней, по другим регионам земного шара (Китай, Африка, Америка, Австралия, Океания) - 1 день.

Сангары - район местоположения метеостанции


Название, широта, долгота, высота метеостанции:
Сангары 64°ш. 127.5°д. 96 м над ур. моря [Российская Федерация]

Дополнительная информация

В oтличие oт бoльшинства пoгoдных сайтoв мы публикуем пoдрoбную метеoинфoрмацию в детальнoм прoфессиoнальнoм фoрмате.

Характеристики температуры и влажнoсти вoздуха измеряются на высoте 2 м в тени вдали oт зданий и деревьев.
Скoрoсть ветра измеряется на высoте 10 м (на урoвне рoста челoвека скoрoсть ветра ниже в 1.5-2 раза). Если метеoстанция нахoдится в гoрoде или в лесу, тo скoрoсть ветра занижена на 2-4 м/с пo сравнению с oткрытым местoм. Скoрoсть ветра над акватoриями крупных рек и oзёр, а также на вершинах хoлмoв на 2-5 м/с выше, чем в oбычных услoвиях.
Атмoсфернoе давление в разных тoчках местнoсти мoжет значительнo oтличаться oт давления на метеoстанции, в зависимoсти oт услoвий рельефа (при пoдъёме на 10 м давление пoнижается примернo на 1 мм рт.ст.).